Location: Grieser Field
(39.7333°N, 81.7975°W)
Time: 23:11:09
(UTC-04:00)

Meteor 2-1 Rocket - Visible Passes

Search period start: 19 April 2014 00:00
Search period end: 29 April 2014 00:00
Orbit: 829 x 909 km, 81.3° (Epoch: 19 April)

Date Brightness Start Highest point End Pass type
(mag) Time Alt. Az. Time Alt. Az. Time Alt. Az.
19 Apr 5.4 04:17:28 10° N 04:23:07 44° ENE 04:28:41 10° SSE visible
19 Apr 5.4 06:01:27 10° NW 06:06:05 24° W 06:10:38 10° SW visible
20 Apr 5.3 04:10:55 10° N 04:16:36 45° ENE 04:22:10 10° SSE visible
20 Apr 5.4 05:54:58 10° NW 05:59:32 24° W 06:04:02 10° SW visible
21 Apr 5.2 04:04:22 10° N 04:10:04 47° ENE 04:15:38 10° SSE visible
21 Apr 5.4 05:48:29 10° NW 05:52:58 23° W 05:57:25 10° SW visible
22 Apr 5.2 03:57:50 10° N 04:03:32 48° ENE 04:08:39 12° SSE visible
22 Apr 5.5 05:42:00 10° NW 05:46:25 23° W 05:50:48 10° SW visible
23 Apr 5.1 03:51:17 10° N 03:57:00 49° ENE 04:01:08 18° SE visible
23 Apr 5.5 05:35:30 10° NW 05:39:52 22° W 05:43:28 13° SW visible
24 Apr 5.0 03:44:44 10° N 03:50:28 50° ENE 03:53:48 24° SE visible
24 Apr 5.5 05:29:01 10° NW 05:33:19 21° W 05:36:08 15° WSW visible
25 Apr 5.0 03:38:11 10° N 03:43:56 51° ENE 03:46:36 30° SE visible
25 Apr 5.6 05:22:33 10° NW 05:26:45 21° W 05:28:57 17° WSW visible
26 Apr 4.9 03:31:39 10° N 03:37:24 52° ENE 03:39:31 35° SE visible
26 Apr 5.6 05:16:04 10° NW 05:20:12 20° W 05:21:52 18° WSW visible
27 Apr 4.9 03:25:06 10° N 03:30:52 54° ENE 03:32:30 41° SE visible
27 Apr 5.6 05:09:35 10° NW 05:13:39 20° W 05:14:51 19° WSW visible
28 Apr 4.8 03:18:33 10° N 03:24:20 55° ENE 03:25:33 46° ESE visible
28 Apr 5.6 05:03:06 10° NW 05:07:05 19° W 05:07:55 19° W visible
